Regional Weather Roundup
Issued by NWS

Home | Current Version | Previous Version | Text Only | Print | Product List | Glossary Off
Versions: 1 2 3 4 5 6 7 8 9 10 11 12 13 14 15 16 17 18 19 20 21 22 23 24 25 26 27 28 29 30 31 32 33 34 35 36 37 38 39 40 41 42 43 44 45 46 47 48 49 50

000
ASUS43 KDTX 170801
RWRMI
MICHIGAN HOURLY REGIONAL WEATHER ROUNDUP
NATIONAL WEATHER SERVICE DETROIT/PONTIAC MI
400 AM EDT TUE OCT 17 2017

NOTE: "FAIR" INDICATES FEW OR NO CLOUDS BELOW 12,000 FEET WITH NO
SIGNIFICANT WEATHER AND/OR OBSTRUCTION TO VISIBILITY.

MIZ047>049-052>055-059>063-066>070-074>076-081>083-170900-
SOUTHEAST LOWER MICHIGAN

CITY           SKY/WX    TMP DP  RH WIND       PRES   REMARKS
ADRIAN         CLEAR     40  37  89 SW5       30.25
ALMA           CLEAR     43  38  82 S8        30.18S
ANN ARBOR      CLEAR     32  32 100 CALM      30.22F
BAD AXE        CLEAR     42  37  82 S6        30.18F
CARO           CLEAR     39  36  89 CALM      30.18F
DETROIT CITY   CLEAR     48  40  73 SW10      30.24F
DETROIT        PTCLDY    43  40  89 S7        30.24F
FLINT          CLEAR     46  38  73 SW8       30.21S
GROSSE ILE     CLEAR     49  40  72 SW6       30.24S
HILLSDALE      CLEAR     43  36  75 SW6       30.23S
HOWELL         CLEAR     45  39  81 S3        30.21S

CITY           SKY/WX    TMP DP  RH WIND       PRES   REMARKS
JACKSON        CLEAR     43  37  79 SW8       30.22S
LAMBERTVILLE   CLEAR     45  40  82 S6        30.25F
LANSING        CLEAR     43  36  76 S5        30.20F
LAPEER         FAIR      38  37  98 S3        30.21S
MASON          CLEAR     45  38  77 CALM      30.21S
MONROE         CLEAR     45  38  77 SW5       30.24F
PONTIAC        CLEAR     40  38  93 CALM      30.21F
PORT HOPE        N/A     44  37  76 VRB3      30.15F
PORT HURON     CLEAR     37  36  93 CALM      30.22F
TRI CITIES     CLEAR     44  40  85 S8        30.18S
MIDLAND        FAIR      41  37  86 CALM      30.16F
TROY           CLEAR     44  39  84 SW5       30.25F
SAGINAW HB     CLEAR     43  37  81 S9        30.17F
$$
MIZ043>046-050>051-056>058-064>065-071>073-077>080-170900-
SOUTHWEST LOWER MICHIGAN

CITY           SKY/WX    TMP DP  RH WIND       PRES   REMARKS
BATTLE CREEK   CLEAR     43  39  86 SW7       30.22S
BENTON HARBOR  CLEAR     45  38  76 S5        30.22R
BIG RAPIDS     CLEAR     38  37  94 SE3       30.14F
COLDWATER      CLEAR     45  38  77 SW6       30.23F
FREMONT        FAIR      42  41  95 CALM      30.15F
HOLLAND        CLEAR     50  45  83 SW10      30.19S
GRAND RAPIDS   CLEAR     47  41  80 SW9       30.18S
IONIA          FAIR      45  38  76 SW7       30.19S
LUDINGTON      CLEAR     56  45  65 SW13      30.09F
MARSHALL       CLEAR     44  38  78 SW5       30.22S
MOUNT PLEASANT CLEAR     45  37  74 CALM      30.15F
MUSKEGON       CLEAR     58  44  60 SW13      30.15F
SOUTH HAVEN    CLEAR     48  40  75 S6        30.21S
$$
MIZ016>042-170900-
NORTHERN LOWER MICHIGAN

CITY           SKY/WX    TMP DP  RH WIND       PRES   REMARKS
ALPENA         CLEAR     44  40  85 S7        30.08F
BEAVER ISLAND  MOCLDY    58  46  63 SW14G20   29.98F
BELLAIRE       PTCLDY    49  41  72 S6        30.05F
CADILLAC       CLEAR     44  39  83 SW7       30.09F
CHARLEVOIX     CLOUDY    50  43  77 S10       30.04F
FRANKFORT      CLEAR     60  45  58 S8G21     30.05F
GAYLORD        CLEAR     44  37  76 SW12      30.05F
GRAYLING       PTCLDY    41  37  84 S5        30.09F
HARBOR SPRINGS PTCLDY    49  42  78 SW7       30.02F
HOUGHTON LAKE  CLEAR     45  39  79 SW8       30.11F
MANISTEE       CLEAR     43  40  89 E3        30.08F
OSCODA         CLEAR     39  37  92 SW6       30.13F WCI  35
PELLSTON       PTCLDY    51  42  71 SW10      30.01F
ROGERS CITY    CLOUDY    43  38  84 S13       30.05F
TRAVERSE CITY  CLOUDY    50  41  71 VRB5      30.04F
$$
MIZ007>008-015-170900-
EASTERN UPPER MICHIGAN

CITY           SKY/WX    TMP DP  RH WIND       PRES   REMARKS
KINROSS        CLOUDY    49  45  86 S6        29.97F
MACKINAC ISLAN PTCLDY    51  44  75 SW12G17   29.99F
NEWBERRY       CLOUDY    52  46  79 S13G20    29.93F
S. S. MARIE    CLOUDY    46  42  86 E3        29.95F
MUNISING         N/A     50  39  66 S13       29.89F
$$
MIZ004>006-011>014-085-170900-
CENTRAL UPPER MICHIGAN

CITY           SKY/WX    TMP DP  RH WIND       PRES   REMARKS
MANISTIQUE     CLOUDY    55  43  65 SW8G17    29.94F
ESCANABA       CLOUDY    48  38  68 SW8       29.94F
MENOMINEE      PTCLDY    49  37  63 SW8       29.98F
SAWYER-GWINN   CLOUDY    43  36  74 SW7       29.91F
$$
MIZ001>003-009>011-084-170900-
WESTERN UPPER MICHIGAN

CITY           SKY/WX    TMP DP  RH WIND       PRES   REMARKS
IRON MOUNTAIN  CLEAR     39  34  82 CALM      29.93F
HOUGHTON       CLEAR     53  35  50 W16G24    29.84S
COPPER HARBOR    N/A     57  36  45 W9G23     29.81S
IRONWOOD       CLEAR     50  37  61 SW8       29.91S
$$

ABBREVIATIONS USED IN REMARKS
   TC - TEMPERATURE IN CELSIUS
  WCI - WIND CHILL INDEX
   HX - HEAT INDEX
  VSB - VISIBILITY





USA.gov is the U.S. government's official web portal to all federal, state and local government web resources and services.